Zurück zum Katalog

STARLINK-30971

AktivKommunikationVLEO
NORAD 58443·PAYLOAD·🇺🇸 United States

Gestartet Nov 28, 2023 von Cape Canaveral Space Force Station

Loading…

Nächste Überflüge (nächste 24 Stunden)

TLE

AktuellSource: CelesTrak SupGP

Epoche: Sep 14, 2026, 22:20 UTC

1 58443C 23183G   26257.93104167  .00056399  00000+0  20423-2 0  2575
2 58443  43.0028  53.2510 0001549 276.8962  23.9182 15.27558493    13

Verfolge STARLINK-30971 in Echtzeit mit AllMySat

Download on the App Store